Debrecen, Hungary

2:28 PM CET on February 22, 2017 (GMT +0100)
Debrecen

Weather History for LHDC - December, 2012

Change the Weather History Date:

Monday, December 24, 2012

  Actual Average Record
Temperature  
Mean Temperature 31 °F -  
Max Temperature 35 °F 34 °F - ()
Min Temperature 27 °F 23 °F - ()
Degree Days  
Heating Degree Days 34    
Moisture  
Dew Point 32 °F    
Average Humidity 96    
Maximum Humidity 100    
Minimum Humidity 92    
Precipitation  
Precipitation 0.01 in 0.05 in - ()
Sea Level Pressure  
Sea Level Pressure 30.11 in    
Wind  
Wind Speed 5 mph ()    
Max Wind Speed 9 mph    
Max Gust Speed -    
Visibility 1.9 miles    
Events Fog , Rain    
T = Trace of Precipitation, MM = Missing Value Source: Averaged Metar Reports

Daily Weather History Graph

Daily Weather History Graph

Search for Another Location

Airport or City:

Trip Planner

Search our weather history database for the weather conditions in past years. The results will help you decide how hot, cold, wet, or windy it might be!

Date:

Astronomy

Dec. 24, 2012 Rise Set
Actual Time 7:19 AM CET 3:46 PM CET
Civil Twilight 6:43 AM CET 4:22 PM CET
Nautical Twilight 6:04 AM CET 5:02 PM CET
Astronomical Twilight 5:27 AM CET 5:39 PM CET
Moon 1:08 PM CET (12/24) 3:34 AM CET (12/24)
Length of Visible Light 9h 38m
Length of Day
8h 26m
Waxing Gibbous, 86% of the Moon is Illuminated
Dec 24
Waxing Gibbous
Dec 28
Full
Jan 5
Last Quarter
Jan 11
New
Jan 19
First Quarter

Hourly Weather History & Observations

Time (CET) Temp. Windchill Dew Point Humidity Pressure Visibility Wind Dir Wind Speed Gust Speed Precip Events Conditions
1:00 AM 28 °F - 27 °F 92% 30.15 in - East 4.5 mph - -  
1:01 AM 28.4 °F 23.3 °F 26.6 °F 93% 30.12 in - East 4.6 mph - N/A   Unknown
5:15 AM 30.2 °F 26.7 °F 30.2 °F 100% 30.12 in 3.7 mi SE 3.5 mph - N/A   Overcast
5:45 AM 32.0 °F 25.6 °F 30.2 °F 93% 30.12 in 3.7 mi SE 6.9 mph - N/A   Overcast
5:50 AM 32.0 °F 25.6 °F 30.2 °F 93% 30.12 in 3.7 mi SSE 6.9 mph - N/A Rain Rain
6:15 AM 32.0 °F 25.6 °F 30.2 °F 93% 30.09 in 3.7 mi SSE 6.9 mph - N/A Rain Rain
6:33 AM 32.0 °F 25.6 °F 30.2 °F 93% 30.12 in 4.3 mi South 6.9 mph - N/A   Overcast
6:45 AM 32.0 °F 24.8 °F 30.2 °F 93% 30.12 in 4.3 mi South 8.1 mph - N/A   Overcast
7:00 AM 32 °F - 31 °F 94% 30.14 in 4 mi South 6.7 mph - - Rain Light Freezing Drizzle
7:15 AM 32.0 °F 25.6 °F 30.2 °F 93% 30.12 in 1.6 mi South 6.9 mph - N/A   Overcast
7:45 AM 32.0 °F 24.8 °F 32.0 °F 100% 30.12 in 1.2 mi South 8.1 mph - N/A   Overcast
8:12 AM 32.0 °F 24.8 °F 32.0 °F 100% 30.15 in 0.5 mi SSW 8.1 mph - N/A Fog Fog
8:15 AM 32.0 °F 24.8 °F 32.0 °F 100% 30.12 in 1.1 mi SSW 8.1 mph - N/A   Overcast
8:45 AM 32.0 °F 24.2 °F 32.0 °F 100% 30.12 in 0.5 mi SSW 9.2 mph - N/A Fog Fog
9:15 AM 32.0 °F 24.2 °F 32.0 °F 100% 30.12 in 0.8 mi South 9.2 mph - N/A Rain Light Rain
9:45 AM 32.0 °F 24.8 °F 32.0 °F 100% 30.12 in 1.2 mi South 8.1 mph - N/A   Overcast
10:15 AM 32.0 °F 24.2 °F 32.0 °F 100% 30.12 in 1.2 mi SSW 9.2 mph - N/A   Overcast
10:45 AM 32.0 °F 25.6 °F 32.0 °F 100% 30.12 in 1.2 mi South 6.9 mph - N/A   Overcast
11:15 AM 32.0 °F 26.4 °F 32.0 °F 100% 30.12 in 1.1 mi South 5.8 mph - N/A   Overcast
11:45 AM 33.8 °F 30.8 °F 32.0 °F 93% 30.12 in 1.2 mi South 3.5 mph - N/A   Overcast
12:15 PM 33.8 °F 30.8 °F 32.0 °F 93% 30.12 in 1.4 mi South 3.5 mph - N/A   Overcast
12:45 PM 33.8 °F 29.6 °F 33.8 °F 100% 30.09 in 1.7 mi SSW 4.6 mph - N/A   Mostly Cloudy
1:00 PM 34 °F - 33 °F 95% 30.12 in 2 mi SSW 4.5 mph - -   Mist
1:15 PM 35.6 °F 31.7 °F 33.8 °F 93% 30.09 in 1.7 mi South 4.6 mph - N/A   Overcast
1:45 PM 35.6 °F - 33.8 °F 93% 30.09 in 1.7 mi South 2.3 mph - N/A   Overcast
2:15 PM 35.6 °F - 33.8 °F 93% 30.09 in 1.6 mi SSE 2.3 mph - N/A   Overcast
2:45 PM 35.6 °F 32.8 °F 33.8 °F 93% 30.09 in 1.6 mi SSE 3.5 mph - N/A   Overcast
3:15 PM 33.8 °F 30.8 °F 33.8 °F 100% 30.09 in 1.2 mi ESE 3.5 mph - N/A   Overcast
3:45 PM 33.8 °F 30.8 °F 33.8 °F 100% 30.09 in 1.2 mi ESE 3.5 mph - N/A   Overcast
4:15 PM 33.8 °F 29.6 °F 32.0 °F 93% 30.09 in 1.2 mi East 4.6 mph - N/A   Overcast
4:45 PM 33.8 °F 30.8 °F 32.0 °F 93% 30.09 in 1.2 mi ENE 3.5 mph - N/A   Overcast
7:00 PM 31 °F - 30 °F 95% 30.12 in - ENE 6.7 mph - -